GW5883 Weather Reports


time (UTC)temp
C
wind
direction
speed
KPH
gust
KPH
rain 1hr
cm
rain 24hr
cm
rain mn
cm
humidity
%
barometer
mb
20260906122214 22 143 0.0 0.0 0.00 0.00 0.00 93 1016.9
20260906121710 22 140 0.0 0.0 0.00 0.00 0.00 93 1016.6
20260906121206 22 143 0.0 0.0 0.00 0.00 0.00 92 1016.6
20260906120702 22 143 0.0 0.0 0.00 0.00 0.00 92 1016.5
20260906120200 22 143 0.0 0.0 0.00 0.00 0.00 92 1016.4
20260906115700 22 146 0.0 0.0 0.00 0.00 0.00 92 1016.5
20260906115155 22 146 0.0 0.0 0.00 0.00 0.00 92 1016.4
20260906114653 22 142 0.0 0.0 0.00 0.00 0.00 92 1016.2
20260906114149 22 145 0.0 0.0 0.00 0.00 0.00 92 1016.3
20260906113643 22 145 0.0 0.0 0.00 0.00 0.00 92 1016.1
20260906113138 22 145 0.0 0.0 0.00 0.00 0.00 92 1015.9
20260906112637 22 146 0.0 0.0 0.00 0.00 0.00 92 1016.0
20260906112135 22 146 0.0 0.0 0.00 0.00 0.00 92 1016.0
20260906111634 22 145 0.0 0.0 0.00 0.00 0.00 92 1016.2
20260906111129 22 146 0.0 0.0 0.00 0.00 0.00 92 1016.0
20260906110624 22 143 0.0 0.0 0.00 0.00 0.00 92 1015.9
20260906110123 22 143 0.0 0.0 0.00 0.00 0.00 92 1015.8
20260906105618 22 145 0.0 0.0 0.00 0.00 0.00 91 1015.9
20260906105114 23 146 0.0 0.0 0.00 0.00 0.00 91 1015.6
20260906104613 23 144 0.0 0.0 0.00 0.00 0.00 91 1015.7
20260906104107 23 145 0.0 0.0 0.00 0.00 0.00 90 1015.4
20260906103606 23 145 0.0 0.0 0.00 0.00 0.00 90 1015.7
20260906103101 23 147 0.0 0.0 0.00 0.00 0.00 90 1015.6
20260906102555 23 147 0.0 0.0 0.00 0.00 0.00 89 1015.5
20260906102051 23 141 0.0 0.0 0.00 0.00 0.00 89 1015.4
20260906101550 23 146 0.0 0.0 0.00 0.00 0.00 89 1015.4
20260906101045 23 143 0.0 0.0 0.00 0.00 0.00 88 1015.3
20260906100541 23 144 0.0 0.0 0.00 0.00 0.00 88 1015.1
20260906100036 23 143 0.0 0.0 0.00 0.00 0.00 87 1015.2
20260906095536 23 137 0.0 0.0 0.00 0.00 0.00 87 1015.4
20260906095031 23 140 0.0 0.0 0.00 0.00 0.00 87 1015.3
20260906094530 23 142 0.0 0.0 0.00 0.00 0.00 86 1015.3
20260906094026 23 146 0.0 0.0 0.00 0.00 0.00 86 1015.4
20260906093522 24 146 0.0 0.0 0.00 0.00 0.00 86 1015.2
20260906093022 24 154 0.0 0.0 0.00 0.00 0.00 86 1015.3
20260906092516 24 143 0.0 0.0 0.00 0.00 0.00 85 1015.2
20260906092012 24 148 0.0 0.0 0.00 0.00 0.00 85 1014.9
20260906091508 24 145 0.0 0.0 0.00 0.00 0.00 85 1015.0
20260906091004 24 148 0.0 0.0 0.00 0.00 0.00 84 1015.1
20260906090459 24 146 0.0 0.0 0.00 0.00 0.00 84 1015.1
20260906085959 24 161 0.0 0.0 0.00 0.00 0.00 84 1015.1
20260906085458 24 152 0.0 0.0 0.00 0.00 0.00 84 1015.0
20260906084957 25 139 0.0 0.0 0.00 0.00 0.00 84 1014.9
20260906084452 25 165 0.0 0.0 0.00 0.00 0.00 83 1015.0
20260906083951 25 116 0.0 0.0 0.00 0.00 0.00 83 1015.0
20260906083447 25 144 0.0 0.0 0.00 0.00 0.00 83 1014.8
20260906082946 25 148 0.0 0.0 0.00 0.00 0.00 83 1015.0
20260906082441 25 145 0.0 0.0 0.00 0.00 0.00 83 1015.0
20260906081937 25 157 0.0 0.0 0.00 0.00 0.00 83 1014.8
20260906081432 25 145 0.0 0.0 0.00 0.00 0.00 82 1015.0
20260906080928 25 154 0.0 0.0 0.00 0.00 0.00 83 1014.8
20260906080425 25 144 0.0 0.0 0.00 0.00 0.00 82 1014.9
20260906075925 25 120 0.0 1.6 0.00 0.00 0.00 82 1014.9
20260906075420 25 137 0.0 0.0 0.00 0.00 0.00 82 1015.1
20260906074915 25 109 0.0 0.0 0.00 0.00 0.00 82 1014.9
20260906074414 25 143 0.0 0.0 0.00 0.00 0.00 82 1015.1
20260906073913 25 149 0.0 0.0 0.00 0.00 0.00 82 1014.9
20260906073408 25 149 0.0 0.0 0.00 0.00 0.00 81 1015.1
20260906072905 25 146 0.0 0.0 0.00 0.00 0.00 81 1015.1
20260906072400 25 158 0.0 1.6 0.00 0.00 0.00 81 1015.2
20260906071856 25 143 0.0 0.0 0.00 0.00 0.00 81 1015.1
20260906071351 25 143 0.0 0.0 0.00 0.00 0.00 80 1015.2
20260906070847 25 147 0.0 0.0 0.00 0.00 0.00 80 1015.1
20260906070343 25 145 0.0 0.0 0.00 0.00 0.00 80 1015.3
20260906065838 25 148 0.0 0.0 0.00 0.00 0.00 80 1015.2
20260906065332 25 153 0.0 0.0 0.00 0.00 0.00 80 1015.3
20260906064828 25 155 0.0 0.0 0.00 0.00 0.00 80 1015.1
20260906064325 25 143 0.0 0.0 0.00 0.00 0.00 79 1015.2
20260906063824 25 148 0.0 0.0 0.00 0.00 0.00 80 1015.3
20260906063320 25 160 0.0 1.6 0.00 0.00 0.00 80 1015.3
20260906062815 25 160 0.0 1.6 0.00 0.00 0.00 80 1015.5
20260906062314 25 174 0.0 1.6 0.00 0.00 0.00 82 1015.5
20260906061810 25 148 1.6 1.6 0.00 0.00 0.00 84 1015.4
20260906061306 25 146 0.0 0.0 0.00 0.00 0.00 84 1015.6
20260906060801 25 141 0.0 0.0 0.00 0.00 0.00 85 1015.8
20260906060258 25 162 0.0 0.0 0.00 0.00 0.00 85 1015.7
20260906055754 25 150 0.0 0.0 0.00 0.00 0.00 86 1015.8
20260906055249 25 144 0.0 0.0 0.00 0.00 0.00 86 1015.8
20260906054744 25 142 0.0 0.0 0.00 0.00 0.00 85 1015.7
20260906054240 25 145 0.0 0.0 0.00 0.00 0.00 85 1015.9
20260906053736 25 144 0.0 0.0 0.00 0.00 0.00 84 1015.9
20260906053232 25 143 0.0 0.0 0.00 0.00 0.00 84 1015.7
20260906052726 25 155 0.0 0.0 0.00 0.00 0.00 84 1015.8
20260906052223 25 141 0.0 0.0 0.00 0.00 0.00 84 1015.7
20260906051720 26 144 0.0 0.0 0.00 0.00 0.00 84 1015.9
20260906051219 26 132 0.0 0.0 0.00 0.00 0.00 83 1015.8
20260906050714 26 139 0.0 0.0 0.00 0.00 0.00 83 1015.7
20260906050209 26 147 0.0 0.0 0.00 0.00 0.00 82 1015.7
20260906045708 26 150 0.0 0.0 0.00 0.00 0.00 84 1015.6
20260906045203 26 94 1.6 1.6 0.00 0.00 0.00 84 1015.6
20260906044659 26 157 0.0 1.6 0.00 0.00 0.00 84 1015.9
20260906044154 26 97 1.6 1.6 0.00 0.00 0.00 84 1015.9
20260906043650 26 154 0.0 0.0 0.00 0.00 0.00 83 1015.8
20260906043146 26 127 0.0 0.0 0.00 0.00 0.00 83 1016.0
20260906042645 26 133 0.0 0.0 0.00 0.00 0.00 84 1015.8
20260906042144 26 145 0.0 0.0 0.00 0.00 0.00 85 1015.4
20260906041641 26 20 3.2 3.2 0.00 0.00 0.00 86 1015.7
20260906041135 26 131 0.0 0.0 0.00 0.00 0.00 86 1015.7
20260906040631 26 144 0.0 0.0 0.00 0.00 0.00 86 1015.5
20260906040127 26 147 0.0 0.0 0.00 0.00 0.00 86 1015.8
20260906035622 26 146 0.0 0.0 0.00 0.00 0.00 86 1015.7
20260906035117 26 141 0.0 0.0 0.00 0.00 0.00 87 1015.7
20260906034617 26 139 0.0 0.0 0.00 0.00 0.00 85 1015.7
20260906034112 26 138 0.0 0.0 0.00 0.00 0.00 85 1015.9
20260906033608 26 143 0.0 0.0 0.00 0.00 0.00 84 1015.5
20260906033103 26 148 0.0 0.0 0.00 0.00 0.00 84 1015.6
20260906032600 26 148 0.0 0.0 0.00 0.00 0.00 85 1015.6
20260906032059 26 149 0.0 0.0 0.00 0.00 0.00 84 1015.5
20260906031555 26 147 0.0 0.0 0.00 0.00 0.00 83 1015.7
20260906031050 26 143 0.0 0.0 0.00 0.00 0.00 82 1015.6
20260906030549 26 143 0.0 0.0 0.00 0.00 0.00 82 1015.4
20260906030050 26 143 0.0 0.0 0.00 0.00 0.00 84 1015.4
20260906025549 26 143 0.0 0.0 0.00 0.00 0.00 84 1015.1
20260906025048 26 136 0.0 0.0 0.00 0.00 0.00 85 1015.0
20260906024543 26 132 0.0 0.0 0.00 0.00 0.00 85 1015.0
20260906024043 26 127 0.0 0.0 0.00 0.00 0.00 85 1014.8
20260906023539 26 145 0.0 0.0 0.00 0.00 0.00 84 1014.7
20260906023034 26 147 0.0 0.0 0.00 0.00 0.00 85 1014.6
20260906022529 26 146 0.0 0.0 0.00 0.00 0.00 85 1014.7
20260906022024 26 146 0.0 0.0 0.00 0.00 0.00 84 1014.7
20260906021520 26 146 0.0 0.0 0.00 0.00 0.00 83 1014.4
20260906021014 27 146 0.0 0.0 0.00 0.00 0.00 83 1014.2
20260906020513 27 147 0.0 0.0 0.00 0.00 0.00 84 1014.2
20260906020013 27 148 0.0 0.0 0.00 0.00 0.00 83 1014.3
20260906015513 27 146 0.0 0.0 0.00 0.00 0.00 83 1014.2
20260906015012 27 148 0.0 0.0 0.00 0.00 0.00 83 1014.2
20260906014507 27 146 0.0 0.0 0.00 0.00 0.00 82 1014.4
20260906014003 27 146 0.0 0.0 0.00 0.00 0.00 82 1014.2
20260906013458 27 146 0.0 0.0 0.00 0.00 0.00 81 1014.2
20260906012954 27 154 0.0 0.0 0.00 0.00 0.00 81 1014.1
20260906012448 27 147 0.0 0.0 0.00 0.00 0.00 81 1014.1
20260906011947 28 144 0.0 0.0 0.00 0.00 0.00 80 1014.1
20260906011443 28 147 0.0 0.0 0.00 0.00 0.00 79 1014.0
20260906010938 28 147 0.0 0.0 0.00 0.00 0.00 79 1014.0
20260906010433 28 147 0.0 0.0 0.00 0.00 0.00 78 1014.1
20260906005930 28 147 0.0 0.0 0.00 0.00 0.00 77 1014.0
20260906005429 28 147 0.0 0.0 0.00 0.00 0.00 76 1014.1
20260906004928 28 148 0.0 0.0 0.00 0.00 0.00 74 1014.1
20260906004422 29 146 0.0 0.0 0.00 0.00 0.00 74 1014.3
20260906003918 29 146 0.0 0.0 0.00 0.00 0.00 72 1014.3
20260906003413 30 147 0.0 0.0 0.00 0.00 0.00 71 1014.3
20260906002908 30 144 0.0 0.0 0.00 0.00 0.00 73 1014.4
20260906002408 30 145 0.0 0.0 0.00 0.00 0.00 71 1014.4
20260906001903 30 146 0.0 0.0 0.00 0.00 0.00 69 1014.3
20260906001359 30 146 0.0 0.0 0.00 0.00 0.00 68 1014.2
20260906000859 31 144 0.0 0.0 0.00 0.00 0.00 68 1014.2
20260906000359 31 143 0.0 0.0 0.00 0.00 0.00 66 1014.2
20260905235855 31 144 0.0 0.0 0.00 0.00 0.00 67 1014.0
20260905235349 32 144 0.0 0.0 0.00 0.00 0.00 64 1014.2
20260905234844 32 144 0.0 0.0 0.00 0.00 0.00 63 1014.3
20260905234339 32 142 0.0 0.0 0.00 0.00 0.00 62 1014.1
20260905233834 33 145 0.0 0.0 0.00 0.00 0.00 59 1014.3
20260905233329 33 145 0.0 0.0 0.00 0.00 0.00 59 1014.4
20260905232828 33 147 0.0 0.0 0.00 0.00 0.00 59 1014.3
20260905232325 34 147 0.0 0.0 0.00 0.00 0.00 56 1014.3
20260905231820 34 141 0.0 0.0 0.00 0.00 0.00 55 1014.2
20260905231315 35 141 0.0 0.0 0.00 0.00 0.00 52 1014.1
20260905230812 35 150 0.0 0.0 0.00 0.00 0.00 50 1014.1
20260905230309 35 145 0.0 0.0 0.00 0.00 0.00 50 1014.1
20260905225809 35 143 0.0 0.0 0.00 0.00 0.00 46 1014.1
20260905225306 36 153 0.0 0.0 0.00 0.00 0.00 47 1014.1
20260905224803 36 144 0.0 0.0 0.00 0.00 0.00 46 1013.9
20260905224259 36 150 0.0 0.0 0.00 0.00 0.00 47 1014.0
20260905223755 36 111 0.0 1.6 0.00 0.00 0.00 45 1014.2
20260905223252 36 150 0.0 0.0 0.00 0.00 0.00 45 1014.0
20260905222747 36 120 0.0 0.0 0.00 0.00 0.00 45 1014.1
20260905222246 36 116 0.0 0.0 0.00 0.00 0.00 44 1013.9
20260905221742 36 134 1.6 1.6 0.00 0.00 0.00 44 1014.2
20260905221239 36 110 1.6 1.6 0.00 0.00 0.00 43 1014.3
20260905220734 36 112 1.6 1.6 0.00 0.00 0.00 43 1014.0
20260905220230 37 114 0.0 1.6 0.00 0.00 0.00 42 1014.2
20260905215729 37 158 0.0 0.0 0.00 0.00 0.00 42 1014.0
20260905215225 37 138 0.0 0.0 0.00 0.00 0.00 42 1014.0
20260905214721 37 172 1.6 1.6 0.00 0.00 0.00 42 1014.1
20260905214216 37 141 0.0 0.0 0.00 0.00 0.00 43 1014.2
20260905213712 37 143 0.0 0.0 0.00 0.00 0.00 44 1014.2
20260905213208 37 168 0.0 1.6 0.00 0.00 0.00 45 1014.4
20260905212702 37 147 0.0 0.0 0.00 0.00 0.00 44 1014.3
20260905212201 37 135 0.0 0.0 0.00 0.00 0.00 44 1014.2
20260905211656 37 133 0.0 0.0 0.00 0.00 0.00 44 1014.2
20260905211151 37 334 3.2 3.2 0.00 0.00 0.00 43 1014.2
20260905210649 37 52 3.2 3.2 0.00 0.00 0.00 43 1014.4
20260905210148 37 151 0.0 1.6 0.00 0.00 0.00 43 1014.4
20260905205647 37 139 1.6 3.2 0.00 0.00 0.00 42 1014.4
20260905205141 37 103 0.0 0.0 0.00 0.00 0.00 42 1014.4
20260905204640 37 89 1.6 3.2 0.00 0.00 0.00 40 1014.6
20260905204137 37 150 0.0 0.0 0.00 0.00 0.00 41 1014.5
20260905203636 37 151 0.0 0.0 0.00 0.00 0.00 40 1014.6
20260905203132 37 143 0.0 0.0 0.00 0.00 0.00 41 1014.8
20260905202627 37 178 0.0 1.6 0.00 0.00 0.00 42 1015.0
20260905202123 38 12 3.2 4.8 0.00 0.00 0.00 40 1015.0
20260905201618 38 161 0.0 0.0 0.00 0.00 0.00 42 1015.1
20260905201117 38 131 1.6 1.6 0.00 0.00 0.00 40 1015.1
20260905200613 38 44 3.2 3.2 0.00 0.00 0.00 39 1015.3
20260905200109 38 142 0.0 0.0 0.00 0.00 0.00 40 1015.0
20260905195602 38 152 0.0 1.6 0.00 0.00 0.00 40 1015.5
20260905195057 37 150 0.0 0.0 0.00 0.00 0.00 40 1015.2
20260905194557 37 125 3.2 3.2 0.00 0.00 0.00 39 1015.3
20260905194056 37 134 0.0 1.6 0.00 0.00 0.00 41 1015.3
20260905193551 37 216 3.2 4.8 0.00 0.00 0.00 42 1015.5
20260905193046 38 146 3.2 3.2 0.00 0.00 0.00 41 1015.7
20260905192542 37 105 0.0 0.0 0.00 0.00 0.00 43 1015.7
20260905192038 36 160 0.0 0.0 0.00 0.00 0.00 45 1015.9
20260905191536 36 129 0.0 0.0 0.00 0.00 0.00 43 1015.8
20260905191035 37 180 1.6 1.6 0.00 0.00 0.00 43 1015.8
20260905190534 37 76 1.6 1.6 0.00 0.00 0.00 44 1015.8
20260905190033 37 178 3.2 3.2 0.00 0.00 0.00 42 1015.7
20260905185533 38 197 1.6 1.6 0.00 0.00 0.00 41 1015.9
20260905185033 40 117 1.6 3.2 0.00 0.00 0.00 39 1015.9
20260905184533 40 116 0.0 1.6 0.00 0.00 0.00 39 1016.0
20260905184032 39 39 1.6 3.2 0.00 0.00 0.00 39 1016.2
20260905183531 38 132 1.6 3.2 0.00 0.00 0.00 40 1016.3
20260905183027 38 189 3.2 3.2 0.00 0.00 0.00 40 1016.4
20260905182521 38 148 0.0 1.6 0.00 0.00 0.00 40 1016.4
20260905182021 38 150 3.2 3.2 0.00 0.00 0.00 40 1016.5
20260905181516 37 168 1.6 3.2 0.00 0.00 0.00 42 1016.4
20260905181015 37 146 1.6 1.6 0.00 0.00 0.00 42 1016.9
20260905180510 37 187 0.0 1.6 0.00 0.00 0.00 41 1016.7
20260905180005 37 161 0.0 0.0 0.00 0.00 0.00 45 1016.7
20260905175504 37 73 1.6 3.2 0.00 0.00 0.00 43 1017.0
20260905175000 37 233 1.6 3.2 0.00 0.00 0.00 42 1016.9
20260905174455 38 144 1.6 1.6 0.00 0.00 0.00 42 1017.2
20260905173951 38 169 0.0 0.0 0.00 0.00 0.00 41 1017.1
20260905173447 38 130 0.0 0.0 0.00 0.00 0.00 42 1017.2
20260905172942 38 178 1.6 3.2 0.00 0.00 0.00 40 1017.1
20260905172440 38 348 3.2 3.2 0.00 0.00 0.00 42 1017.2
20260905171936 37 177 1.6 1.6 0.00 0.00 0.00 42 1017.2
20260905171432 37 323 1.6 3.2 0.00 0.00 0.00 44 1017.0
20260905170928 38 207 1.6 1.6 0.00 0.00 0.00 43 1017.2
20260905170424 38 27 1.6 3.2 0.00 0.00 0.00 41 1017.4
20260905165924 38 135 0.0 0.0 0.00 0.00 0.00 43 1017.2
20260905165419 37 155 0.0 0.0 0.00 0.00 0.00 43 1017.7
20260905164915 37 57 0.0 1.6 0.00 0.00 0.00 44 1017.6
20260905164415 36 142 0.0 1.6 0.00 0.00 0.00 46 1017.6
20260905163915 36 142 0.0 0.0 0.00 0.00 0.00 48 1017.7
20260905163412 36 201 4.8 4.8 0.00 0.00 0.00 46 1017.5
20260905162908 36 90 1.6 1.6 0.00 0.00 0.00 47 1017.6
20260905162402 36 132 0.0 1.6 0.00 0.00 0.00 48 1017.8
20260905161857 36 129 1.6 1.6 0.00 0.00 0.00 47 1017.6
20260905161356 36 16 3.2 3.2 0.00 0.00 0.00 48 1017.8
20260905160855 36 139 0.0 1.6 0.00 0.00 0.00 51 1017.8
20260905160354 35 82 0.0 1.6 0.00 0.00 0.00 49 1017.8
20260905155849 35 134 0.0 0.0 0.00 0.00 0.00 54 1017.9
20260905155348 35 20 3.2 3.2 0.00 0.00 0.00 52 1017.8
20260905154847 35 16 3.2 4.8 0.00 0.00 0.00 54 1017.9
20260905154343 33 76 1.6 1.6 0.00 0.00 0.00 56 1017.9
20260905153838 33 129 0.0 0.0 0.00 0.00 0.00 58 1017.8
20260905153335 33 119 1.6 1.6 0.00 0.00 0.00 55 1018.2
20260905152834 33 62 1.6 1.6 0.00 0.00 0.00 56 1017.9
20260905152334 33 132 1.6 1.6 0.00 0.00 0.00 57 1018.3
20260905151829 33 120 0.0 1.6 0.00 0.00 0.00 57 1018.3
20260905151325 33 141 0.0 0.0 0.00 0.00 0.00 61 1018.1
20260905150824 33 141 1.6 1.6 0.00 0.00 0.00 60 1018.3
20260905150319 33 137 0.0 1.6 0.00 0.00 0.00 60 1018.2
20260905145816 32 143 0.0 0.0 0.00 0.00 0.00 62 1018.2
20260905145310 31 135 0.0 0.0 0.00 0.00 0.00 63 1018.2
20260905144809 31 131 0.0 0.0 0.00 0.00 0.00 69 1018.2
20260905144305 31 136 0.0 0.0 0.00 0.00 0.00 69 1018.4
20260905143804 31 134 0.0 0.0 0.00 0.00 0.00 68 1018.4
20260905143258 31 145 0.0 0.0 0.00 0.00 0.00 70 1018.3
20260905142756 31 157 0.0 1.6 0.00 0.00 0.00 70 1018.5
20260905142251 30 151 0.0 1.6 0.00 0.00 0.00 71 1018.3
20260905141747 30 140 0.0 0.0 0.00 0.00 0.00 74 1018.3
20260905141244 29 152 0.0 0.0 0.00 0.00 0.00 75 1018.4
20260905140739 28 142 0.0 0.0 0.00 0.00 0.00 78 1018.4
20260905140239 28 138 0.0 0.0 0.00 0.00 0.00 78 1018.5
20260905135737 27 139 0.0 0.0 0.00 0.00 0.00 82 1018.5
20260905135234 27 139 0.0 0.0 0.00 0.00 0.00 85 1018.4
20260905134733 27 141 0.0 0.0 0.00 0.00 0.00 86 1018.3
20260905134232 26 142 0.0 0.0 0.00 0.00 0.00 87 1018.4
20260905133727 26 142 0.0 0.0 0.00 0.00 0.00 89 1018.4
20260905133223 26 141 0.0 0.0 0.00 0.00 0.00 89 1018.5
20260905132721 25 142 0.0 0.0 0.00 0.00 0.00 90 1018.4
20260905132217 25 142 0.0 0.0 0.00 0.00 0.00 90 1018.3
20260905131712 25 143 0.0 0.0 0.00 0.00 0.00 91 1018.4
20260905131208 25 142 0.0 0.0 0.00 0.00 0.00 91 1018.3
20260905130707 24 143 0.0 0.0 0.00 0.00 0.00 92 1018.3
20260905130202 24 143 0.0 0.0 0.00 0.00 0.00 93 1018.2
20260905125701 24 143 0.0 0.0 0.00 0.00 0.00 94 1018.5
20260905125157 23 144 0.0 0.0 0.00 0.00 0.00 95 1018.3
20260905124653 23 144 0.0 0.0 0.00 0.00 0.00 95 1018.4
20260905124149 23 144 0.0 0.0 0.00 0.00 0.00 95 1018.3
20260905123644 23 144 0.0 0.0 0.00 0.00 0.00 96 1018.3
20260905123142 23 144 0.0 0.0 0.00 0.00 0.00 96 1018.3
20260905122641 23 144 0.0 0.0 0.00 0.00 0.00 96 1018.1